Alderney, United Kingdom

6:45 AM BST on May 28, 2017 (GMT +0100)
Alderney

Weather History for EGJA - November, 2012

Change the Weather History Date:

Friday, November 2, 2012

  Actual Average Record
Temperature  
Mean Temperature 48 °F -  
Max Temperature 50 °F 52 °F 60 °F (2005)
Min Temperature 46 °F 47 °F 44 °F (2006)
Degree Days  
Heating Degree Days 17    
Moisture  
Dew Point 41 °F    
Average Humidity 74    
Maximum Humidity 87    
Minimum Humidity 66    
Precipitation  
Precipitation 0.00 in - - ()
Sea Level Pressure  
Sea Level Pressure 29.35 in    
Wind  
Wind Speed 17 mph ()    
Max Wind Speed 29 mph    
Max Gust Speed 46 mph    
Visibility 6.2 miles    
Events Rain    
Averages and records for this station are not official NWS values.
T = Trace of Precipitation, MM = Missing Value Source: Averaged Metar Reports

Daily Weather History Graph

Daily Weather History Graph

Search for Another Location

Airport or City:

Trip Planner

Search our weather history database for the weather conditions in past years. The results will help you decide how hot, cold, wet, or windy it might be!

Date:

Astronomy

Nov. 02, 2012 Rise Set
Actual Time 6:59 AM GMT 4:44 PM GMT
Civil Twilight 6:26 AM GMT 5:17 PM GMT
Nautical Twilight 5:47 AM GMT 5:55 PM GMT
Astronomical Twilight 5:10 AM GMT 6:33 PM GMT
Moon 7:06 PM GMT (11/2) 10:21 AM GMT (11/2)
Length of Visible Light 10h 51m
Length of Day
9h 44m
Waning Gibbous, 88% of the Moon is Illuminated
Nov 2
Waning Gibbous
Nov 7
Last Quarter
Nov 13
New
Nov 20
First Quarter
Nov 28
Full

Hourly Weather History & Observations

Time (GMT) Temp. Windchill Dew Point Humidity Pressure Visibility Wind Dir Wind Speed Gust Speed Precip Events Conditions
6:50 AM 46.4 °F 39.5 °F 41.0 °F 81% 29.30 in 6.2 mi SW 17.3 mph - N/A   Scattered Clouds
7:20 AM 46.4 °F 39.5 °F 42.8 °F 87% 29.30 in 6.2 mi SSW 17.3 mph - N/A Rain Light Rain Showers
7:50 AM 46.4 °F 40.7 °F 41.0 °F 81% 29.30 in 6.2 mi SW 12.7 mph - N/A   Scattered Clouds
8:20 AM 48.2 °F - 42.8 °F 82% 29.30 in 6.2 mi SSW 21.9 mph - N/A   Scattered Clouds
8:50 AM 48.2 °F - 42.8 °F 82% 29.30 in 6.2 mi SSW 16.1 mph - N/A Rain Light Rain Showers
9:20 AM 46.4 °F 41.1 °F 41.0 °F 81% 29.30 in 6.2 mi WSW 11.5 mph - N/A   Scattered Clouds
9:50 AM 46.4 °F 37.4 °F 39.2 °F 76% 29.33 in 6.2 mi SW 28.8 mph - N/A   Scattered Clouds
10:20 AM 46.4 °F 39.8 °F 41.0 °F 81% 29.33 in 6.2 mi SSW 16.1 mph - N/A   Scattered Clouds
10:50 AM 46.4 °F 38.5 °F 41.0 °F 81% 29.33 in 6.2 mi SW 21.9 mph 46.0 mph N/A   Scattered Clouds
11:20 AM 50.0 °F - 42.8 °F 76% 29.33 in 6.2 mi SW 16.1 mph - N/A   Scattered Clouds
11:50 AM 50.0 °F - 41.0 °F 71% 29.33 in 6.2 mi West 25.3 mph 39.1 mph N/A Rain Light Rain Showers
12:20 PM 50.0 °F - 42.8 °F 76% 29.33 in 6.2 mi West 15.0 mph - N/A   Scattered Clouds
12:50 PM 50.0 °F - 41.0 °F 71% 29.33 in 6.2 mi West 20.7 mph - N/A   Scattered Clouds
1:20 PM 50.0 °F - 41.0 °F 71% 29.36 in 6.2 mi West 24.2 mph - N/A   Scattered Clouds
1:50 PM 50.0 °F - 39.2 °F 66% 29.36 in 6.2 mi West 24.2 mph - N/A   Scattered Clouds
2:20 PM 50.0 °F - 41.0 °F 71% 29.36 in 6.2 mi West 20.7 mph - N/A   Scattered Clouds
2:50 PM 50.0 °F - 41.0 °F 71% 29.36 in 6.2 mi WSW 16.1 mph - N/A   Partly Cloudy
3:20 PM 50.0 °F - 39.2 °F 66% 29.39 in 6.2 mi West 26.5 mph - N/A   Scattered Clouds
3:50 PM 50.0 °F - 41.0 °F 71% 29.39 in 6.2 mi WSW 23.0 mph - N/A   Scattered Clouds
4:20 PM 50.0 °F - 39.2 °F 66% 29.39 in 6.2 mi West 25.3 mph - N/A   Scattered Clouds
4:50 PM 50.0 °F - 39.2 °F 66% 29.42 in 6.2 mi WSW 21.9 mph - N/A   Scattered Clouds
5:20 PM 50.0 °F - 39.2 °F 66% 29.42 in 6.2 mi WSW 21.9 mph - N/A   Scattered Clouds
5:50 PM 50.0 °F - 39.2 °F 66% 29.42 in 6.2 mi West 24.2 mph - N/A   Scattered Clouds
6:20 PM 48.2 °F - 41.0 °F 76% 29.42 in 6.2 mi West 18.4 mph - N/A   Scattered Clouds